Location: Poprad
(49.0500°N, 20.3000°E)
Time: 00:12:15
(UTC+02:00)

AO-73 - Visible Passes

Search period start: 25 April 2024 00:00
Search period end: 05 May 2024 00:00
Orbit: 561 x 627 km, 97.7° (Epoch: 23 April)

Date Brightness Start Highest point End Pass type
(mag) Time Alt. Az. Time Alt. Az. Time Alt. Az.
25 Apr ? 02:59:53 10° NE 03:03:24 23° E 03:06:54 10° SE visible
25 Apr ? 04:35:02 10° N 04:39:11 43° WNW 04:43:18 10° SW visible
26 Apr ? 03:08:58 10° NE 03:12:46 28° E 03:16:32 10° SSE visible
26 Apr ? 04:44:25 10° N 04:48:25 35° WNW 04:52:23 10° SW visible
27 Apr ? 03:18:04 10° NNE 03:22:06 34° E 03:26:05 10° SSE visible
28 Apr ? 03:27:11 10° NNE 03:31:22 42° E 03:35:31 10° S visible
29 Apr ? 03:36:19 10° NNE 03:40:37 52° E 03:44:52 10° S visible
30 Apr ? 03:45:26 10° NNE 03:49:48 64° ESE 03:54:08 10° S visible
01 May ? 03:54:33 10° NNE 03:58:58 79° ESE 04:03:19 10° S visible
02 May ? 02:30:14 10° ENE 02:31:53 12° E 02:33:31 10° ESE visible
02 May ? 04:03:40 10° NNE 04:08:04 85° WNW 04:12:26 10° SSW visible
03 May ? 02:38:38 10° NE 02:41:05 15° E 02:43:30 10° ESE visible
03 May ? 04:12:47 10° N 04:17:09 69° WNW 04:21:28 10° SSW visible
04 May ? 02:47:17 10° NE 02:50:14 18° E 02:53:11 10° SE visible
04 May ? 04:21:53 10° N 04:26:11 56° WNW 04:30:25 10° SSW visible
